Location: Newark
(49.3667°N, 21.6167°E)
Time: 14:10:32
(UTC+00:00)

Envisat - Pass Details

Date: 12 December 2019
Orbit: 764 x 766 km, 98.1° (Epoch: 18 January)

Event Time Altitude Azimuth Distance (km) Brightness Sun altitude
Rises 05:03:27 0° 18° (NNE) 3,246 6.2 -11.7°
Reaches altitude 10° 05:05:51 10° 23° (NNE) 2,314 5.5 -11.3°
Maximum altitude 05:10:48 50° 99° (E) 970 4.0 -10.6°
Drops below altitude 10° 05:15:43 10° 175° (S) 2,296 5.9 -9.8°
Sets 05:18:05 0° 180° (S) 3,218 6.6 -9.5°
